Location: Newark
(40.3500°N, 15.2333°E)
Time: 05:45:40
(UTC+00:00)

Altair - Pass Details

Date: 24 January 2020
Orbit: 1502 x 1682 km, 47.2° (Epoch: 17 February)

Event Time Altitude Azimuth Distance (km) Brightness Sun altitude
Rises 06:08:27 0° 203° (SSW) 4,832 10.1 -2.1°
Reaches altitude 10° 06:11:50 10° 195° (SSW) 3,871 9.7 -1.5°
Maximum altitude 06:20:41 38° 132° (SE) 2,369 9.4 0.1°
Drops below altitude 10° 06:29:40 10° 70° (ENE) 3,948 10.4 1.6°
Sets 06:33:08 0° 63° (ENE) 4,937 10.7 2.2°
